Location: Chinna Viriv?da
(16.5281°N, 81.0493°E)
Time: 01:00:53
(UTC+00:00)

ATLAS 5 CENTAUR R/B - Pass Details

Date: 14 April 2026
Orbit: 302 x 12798 km, 60.8° (Epoch: 9 May)

Event Time Altitude Azimuth Distance (km) Brightness Sun altitude
Exits shadow 22:07:38 32° 8° (N) 1,296 3.8 -31.5°
Drops below altitude 10° 22:12:11 10° 23° (NNE) 3,416 6.3 -30.5°
Sets 22:17:29 0° 26° (NNE) 5,791 7.7 -29.3°
